| time (UTC) | temp F | wind direction | speed MPH | gust MPH | rain 1hr in | rain 24hr in | rain mn in | humidity % | barometer mb |
| 20260505064200 | 74 | 8 | 2.0 | 2.0 | 0.00 | 0.00 | 0.00 | 87 | 1016.2 |
| 20260505063657 | 74 | 3 | 3.0 | 3.0 | 0.00 | 0.00 | 0.00 | 87 | 1016.2 |
| 20260505063153 | 74 | 305 | 1.0 | 2.0 | 0.00 | 0.00 | 0.00 | 87 | 1016.3 |
| 20260505062649 | 75 | 70 | 2.0 | 3.0 | 0.00 | 0.00 | 0.00 | 86 | 1016.4 |
| 20260505062147 | 74 | 359 | 2.0 | 3.0 | 0.00 | 0.00 | 0.00 | 86 | 1016.4 |
| 20260505061644 | 75 | 304 | 2.0 | 2.0 | 0.00 | 0.00 | 0.00 | 86 | 1016.5 |
| 20260505061142 | 75 | 36 | 3.0 | 3.0 | 0.00 | 0.00 | 0.00 | 86 | 1016.5 |
| 20260505060639 | 75 | 295 | 2.0 | 2.0 | 0.00 | 0.00 | 0.00 | 85 | 1016.5 |
| 20260505060136 | 75 | 47 | 2.0 | 3.0 | 0.00 | 0.00 | 0.00 | 86 | 1016.7 |
| 20260505055631 | 75 | 354 | 2.0 | 2.0 | 0.00 | 0.00 | 0.00 | 85 | 1016.8 |
| 20260505055128 | 75 | 295 | 1.0 | 2.0 | 0.00 | 0.00 | 0.00 | 85 | 1016.6 |
| 20260505054625 | 75 | 9 | 2.0 | 2.0 | 0.00 | 0.00 | 0.00 | 85 | 1016.9 |
| 20260505054123 | 75 | 18 | 2.0 | 2.0 | 0.00 | 0.00 | 0.00 | 84 | 1017.0 |
| 20260505053620 | 75 | 34 | 2.0 | 3.0 | 0.00 | 0.00 | 0.00 | 85 | 1016.9 |
| 20260505053117 | 75 | 310 | 2.0 | 2.0 | 0.00 | 0.00 | 0.00 | 84 | 1016.8 |
| 20260505052614 | 75 | 291 | 1.0 | 1.0 | 0.00 | 0.00 | 0.00 | 84 | 1017.0 |
| 20260505052111 | 75 | 20 | 2.0 | 2.0 | 0.00 | 0.00 | 0.00 | 84 | 1017.2 |
| 20260505051608 | 75 | 43 | 2.0 | 2.0 | 0.00 | 0.00 | 0.00 | 83 | 1017.2 |
| 20260505051106 | 75 | 51 | 2.0 | 3.0 | 0.00 | 0.00 | 0.00 | 84 | 1017.3 |
| 20260505050604 | 75 | 351 | 3.0 | 3.0 | 0.00 | 0.00 | 0.00 | 85 | 1017.4 |
| 20260505041531 | 75 | 55 | 2.0 | 3.0 | 0.00 | 0.00 | 0.00 | 85 | 1017.9 |
| 20260505041029 | 75 | 4 | 2.0 | 3.0 | 0.00 | 0.00 | 0.00 | 85 | 1018.0 |
| 20260505040526 | 75 | 51 | 2.0 | 3.0 | 0.00 | 0.00 | 0.00 | 84 | 1017.9 |
| 20260505040023 | 75 | 34 | 2.0 | 3.0 | 0.00 | 0.00 | 0.00 | 85 | 1017.8 |
| 20260505035519 | 76 | 313 | 2.0 | 2.0 | 0.00 | 0.00 | 0.00 | 84 | 1018.0 |
| 20260505035016 | 76 | 284 | 0.0 | 1.0 | 0.00 | 0.00 | 0.00 | 84 | 1018.0 |
| 20260505034512 | 76 | 351 | 2.0 | 2.0 | 0.00 | 0.00 | 0.00 | 84 | 1018.0 |
| 20260505034010 | 76 | 318 | 1.0 | 1.0 | 0.00 | 0.00 | 0.00 | 85 | 1018.0 |
| 20260505033507 | 76 | 34 | 2.0 | 2.0 | 0.00 | 0.00 | 0.00 | 85 | 1018.0 |
| 20260505033005 | 76 | 293 | 1.0 | 2.0 | 0.00 | 0.00 | 0.00 | 85 | 1018.2 |
| 20260505032502 | 76 | 15 | 2.0 | 3.0 | 0.00 | 0.00 | 0.00 | 85 | 1018.3 |
| 20260505031958 | 76 | 333 | 2.0 | 2.0 | 0.00 | 0.00 | 0.00 | 84 | 1018.1 |
| 20260505031455 | 76 | 359 | 3.0 | 3.0 | 0.00 | 0.00 | 0.00 | 84 | 1018.1 |
| 20260505030952 | 77 | 344 | 3.0 | 3.0 | 0.00 | 0.00 | 0.00 | 83 | 1018.1 |
| 20260505030448 | 77 | 312 | 1.0 | 2.0 | 0.00 | 0.00 | 0.00 | 83 | 1018.1 |
| 20260505025943 | 77 | 11 | 2.0 | 2.0 | 0.00 | 0.00 | 0.00 | 84 | 1018.1 |
| 20260505025441 | 77 | 317 | 2.0 | 2.0 | 0.00 | 0.00 | 0.00 | 84 | 1018.2 |
| 20260505024939 | 77 | 315 | 1.0 | 1.0 | 0.00 | 0.00 | 0.00 | 84 | 1018.1 |
| 20260505024437 | 77 | 311 | 2.0 | 2.0 | 0.00 | 0.00 | 0.00 | 84 | 1018.0 |
| 20260505023933 | 77 | 311 | 1.0 | 2.0 | 0.00 | 0.00 | 0.00 | 84 | 1018.1 |
| 20260505023431 | 77 | 343 | 2.0 | 2.0 | 0.00 | 0.00 | 0.00 | 84 | 1017.9 |
| 20260505022928 | 77 | 58 | 2.0 | 3.0 | 0.00 | 0.00 | 0.00 | 84 | 1017.8 |
| 20260505022426 | 77 | 8 | 2.0 | 3.0 | 0.00 | 0.00 | 0.00 | 84 | 1018.0 |
| 20260505021922 | 77 | 292 | 2.0 | 2.0 | 0.00 | 0.00 | 0.00 | 84 | 1017.9 |
| 20260505021418 | 77 | 9 | 2.0 | 3.0 | 0.00 | 0.00 | 0.00 | 83 | 1017.8 |
| 20260505020914 | 77 | 343 | 1.0 | 1.0 | 0.00 | 0.00 | 0.00 | 83 | 1017.9 |
| 20260505020410 | 77 | 337 | 1.0 | 1.0 | 0.00 | 0.00 | 0.00 | 84 | 1017.7 |
| 20260505015907 | 77 | 305 | 1.0 | 2.0 | 0.00 | 0.00 | 0.00 | 84 | 1017.7 |
| 20260505015404 | 77 | 333 | 1.0 | 1.0 | 0.00 | 0.00 | 0.00 | 84 | 1017.7 |
| 20260505014902 | 78 | 298 | 1.0 | 1.0 | 0.00 | 0.00 | 0.00 | 84 | 1017.6 |
| 20260505014358 | 78 | 348 | 1.0 | 2.0 | 0.00 | 0.00 | 0.00 | 84 | 1017.7 |
| 20260505013855 | 78 | 32 | 1.0 | 2.0 | 0.00 | 0.00 | 0.00 | 83 | 1017.5 |
| 20260505013352 | 78 | 298 | 1.0 | 1.0 | 0.00 | 0.00 | 0.00 | 83 | 1017.4 |
| 20260505012851 | 79 | 288 | 0.0 | 0.0 | 0.00 | 0.00 | 0.00 | 81 | 1017.4 |
| 20260505012348 | 79 | 296 | 0.0 | 1.0 | 0.00 | 0.00 | 0.00 | 81 | 1017.3 |
| 20260505011844 | 80 | 223 | 1.0 | 1.0 | 0.00 | 0.00 | 0.00 | 81 | 1017.3 |
| 20260505011341 | 80 | 285 | 0.0 | 1.0 | 0.00 | 0.00 | 0.00 | 79 | 1017.1 |
| 20260505010837 | 80 | 238 | 1.0 | 1.0 | 0.00 | 0.00 | 0.00 | 78 | 1017.4 |
| 20260505010333 | 81 | 273 | 1.0 | 1.0 | 0.00 | 0.00 | 0.00 | 79 | 1017.2 |
| 20260505005829 | 80 | 250 | 1.0 | 1.0 | 0.00 | 0.00 | 0.00 | 78 | 1017.0 |
| 20260505005326 | 81 | 246 | 1.0 | 1.0 | 0.00 | 0.00 | 0.00 | 78 | 1017.1 |
| 20260505004824 | 81 | 30 | 2.0 | 2.0 | 0.00 | 0.00 | 0.00 | 79 | 1016.9 |
| 20260505004320 | 81 | 240 | 1.0 | 1.0 | 0.00 | 0.00 | 0.00 | 78 | 1016.9 |
| 20260505003817 | 81 | 289 | 1.0 | 2.0 | 0.00 | 0.00 | 0.00 | 78 | 1017.0 |
| 20260505003314 | 81 | 250 | 1.0 | 1.0 | 0.00 | 0.00 | 0.00 | 78 | 1016.9 |
| 20260505002810 | 81 | 257 | 1.0 | 1.0 | 0.00 | 0.00 | 0.00 | 78 | 1016.7 |
| 20260505002308 | 81 | 241 | 1.0 | 1.0 | 0.00 | 0.00 | 0.00 | 78 | 1016.9 |
| 20260505001806 | 81 | 252 | 0.0 | 0.0 | 0.00 | 0.00 | 0.00 | 78 | 1016.9 |
| 20260505001303 | 82 | 240 | 2.0 | 2.0 | 0.00 | 0.00 | 0.00 | 78 | 1016.8 |
| 20260505000800 | 82 | 282 | 2.0 | 2.0 | 0.00 | 0.00 | 0.00 | 77 | 1017.0 |
| 20260505000258 | 82 | 266 | 2.0 | 3.0 | 0.00 | 0.00 | 0.00 | 77 | 1017.0 |
| 20260504235754 | 82 | 236 | 1.0 | 1.0 | 0.00 | 0.00 | 0.00 | 77 | 1016.8 |
| 20260504235250 | 82 | 217 | 1.0 | 2.0 | 0.00 | 0.00 | 0.00 | 77 | 1016.9 |
| 20260504234748 | 82 | 352 | 1.0 | 2.0 | 0.00 | 0.00 | 0.00 | 77 | 1016.7 |
| 20260504234245 | 82 | 232 | 2.0 | 3.0 | 0.00 | 0.00 | 0.00 | 78 | 1016.9 |
| 20260504233741 | 82 | 269 | 0.0 | 1.0 | 0.00 | 0.00 | 0.00 | 78 | 1016.9 |
| 20260504233237 | 82 | 266 | 1.0 | 1.0 | 0.00 | 0.00 | 0.00 | 77 | 1016.8 |
| 20260504232734 | 82 | 261 | 0.0 | 0.0 | 0.00 | 0.00 | 0.00 | 77 | 1016.6 |
| 20260504232231 | 82 | 255 | 1.0 | 1.0 | 0.00 | 0.00 | 0.00 | 77 | 1016.6 |
| 20260504231728 | 82 | 262 | 0.0 | 0.0 | 0.00 | 0.00 | 0.00 | 76 | 1016.7 |
| 20260504231224 | 82 | 269 | 0.0 | 0.0 | 0.00 | 0.00 | 0.00 | 76 | 1016.8 |
| 20260504230720 | 82 | 273 | 0.0 | 1.0 | 0.00 | 0.00 | 0.00 | 76 | 1016.7 |
| 20260504230219 | 83 | 165 | 2.0 | 3.0 | 0.00 | 0.00 | 0.00 | 76 | 1016.5 |
| 20260504225717 | 83 | 79 | 1.0 | 1.0 | 0.00 | 0.00 | 0.00 | 76 | 1016.4 |
| 20260504225213 | 83 | 230 | 2.0 | 2.0 | 0.00 | 0.00 | 0.00 | 75 | 1016.5 |
| 20260504224711 | 83 | 240 | 2.0 | 2.0 | 0.00 | 0.00 | 0.00 | 75 | 1016.2 |
| 20260504224208 | 83 | 250 | 0.0 | 1.0 | 0.00 | 0.00 | 0.00 | 75 | 1016.3 |
| 20260504223704 | 83 | 256 | 0.0 | 0.0 | 0.00 | 0.00 | 0.00 | 75 | 1016.3 |
| 20260504223200 | 83 | 286 | 0.0 | 1.0 | 0.00 | 0.00 | 0.00 | 75 | 1016.3 |
| 20260504222657 | 83 | 271 | 2.0 | 3.0 | 0.00 | 0.00 | 0.00 | 76 | 1016.1 |
| 20260504222153 | 83 | 267 | 0.0 | 1.0 | 0.00 | 0.00 | 0.00 | 75 | 1016.1 |
| 20260504221651 | 83 | 211 | 4.0 | 6.0 | 0.00 | 0.00 | 0.00 | 75 | 1016.1 |
| 20260504221148 | 83 | 179 | 6.0 | 8.0 | 0.00 | 0.00 | 0.00 | 74 | 1016.0 |
| 20260504220644 | 83 | 178 | 5.0 | 6.0 | 0.00 | 0.00 | 0.00 | 74 | 1016.0 |
| 20260504220142 | 84 | 222 | 4.0 | 6.0 | 0.00 | 0.00 | 0.00 | 73 | 1015.9 |
| 20260504215638 | 84 | 258 | 2.0 | 3.0 | 0.00 | 0.00 | 0.00 | 72 | 1015.8 |
| 20260504215136 | 84 | 216 | 4.0 | 7.0 | 0.00 | 0.00 | 0.00 | 73 | 1015.8 |
| 20260504214631 | 84 | 167 | 8.0 | 9.0 | 0.00 | 0.00 | 0.00 | 72 | 1015.9 |
| 20260504214128 | 84 | 217 | 4.0 | 4.0 | 0.00 | 0.00 | 0.00 | 72 | 1015.6 |
| 20260504213625 | 84 | 220 | 4.0 | 6.0 | 0.00 | 0.00 | 0.00 | 72 | 1015.6 |
| 20260504213121 | 85 | 253 | 2.0 | 4.0 | 0.00 | 0.00 | 0.00 | 72 | 1015.6 |
| 20260504212618 | 84 | 237 | 4.0 | 4.0 | 0.00 | 0.00 | 0.00 | 73 | 1015.8 |
| 20260504212115 | 84 | 229 | 7.0 | 8.0 | 0.00 | 0.00 | 0.00 | 72 | 1015.7 |
| 20260504211612 | 84 | 188 | 6.0 | 8.0 | 0.00 | 0.00 | 0.00 | 72 | 1015.7 |
| 20260504211109 | 85 | 197 | 2.0 | 3.0 | 0.00 | 0.00 | 0.00 | 71 | 1015.6 |
| 20260504210606 | 85 | 269 | 4.0 | 6.0 | 0.00 | 0.00 | 0.00 | 70 | 1015.7 |
| 20260504205601 | 85 | 207 | 6.0 | 9.0 | 0.00 | 0.00 | 0.00 | 70 | 1015.4 |
| 20260504205058 | 86 | 180 | 1.0 | 2.0 | 0.00 | 0.00 | 0.00 | 68 | 1015.5 |
| 20260504204555 | 85 | 271 | 3.0 | 6.0 | 0.00 | 0.00 | 0.00 | 70 | 1015.6 |
| 20260504204055 | 85 | 220 | 5.0 | 7.0 | 0.00 | 0.00 | 0.00 | 69 | 1015.5 |
| 20260504203552 | 85 | 190 | 4.0 | 6.0 | 0.00 | 0.00 | 0.00 | 69 | 1015.5 |
| 20260504203050 | 85 | 237 | 5.0 | 7.0 | 0.00 | 0.00 | 0.00 | 70 | 1015.6 |
| 20260504202545 | 86 | 198 | 2.0 | 3.0 | 0.00 | 0.00 | 0.00 | 69 | 1015.4 |
| 20260504202042 | 85 | 236 | 4.0 | 7.0 | 0.00 | 0.00 | 0.00 | 69 | 1015.5 |
| 20260504201539 | 85 | 159 | 5.0 | 7.0 | 0.00 | 0.00 | 0.00 | 67 | 1015.5 |
| 20260504201037 | 86 | 257 | 5.0 | 7.0 | 0.00 | 0.00 | 0.00 | 67 | 1015.5 |
| 20260504200533 | 86 | 172 | 6.0 | 7.0 | 0.00 | 0.00 | 0.00 | 68 | 1015.6 |
| 20260504200030 | 86 | 241 | 2.0 | 3.0 | 0.00 | 0.00 | 0.00 | 68 | 1015.7 |
| 20260504195526 | 87 | 241 | 2.0 | 3.0 | 0.00 | 0.00 | 0.00 | 66 | 1015.8 |
| 20260504195023 | 87 | 237 | 2.0 | 3.0 | 0.00 | 0.00 | 0.00 | 66 | 1015.6 |
| 20260504194519 | 87 | 254 | 7.0 | 8.0 | 0.00 | 0.00 | 0.00 | 65 | 1015.8 |
| 20260504194014 | 87 | 291 | 1.0 | 2.0 | 0.00 | 0.00 | 0.00 | 64 | 1015.8 |
| 20260504193511 | 88 | 229 | 2.0 | 3.0 | 0.00 | 0.00 | 0.00 | 63 | 1015.6 |
| 20260504193010 | 87 | 222 | 4.0 | 6.0 | 0.00 | 0.00 | 0.00 | 66 | 1015.9 |
| 20260504192508 | 87 | 207 | 6.0 | 9.0 | 0.00 | 0.00 | 0.00 | 66 | 1015.9 |
| 20260504192006 | 86 | 220 | 9.0 | 11.0 | 0.00 | 0.00 | 0.00 | 68 | 1016.0 |
| 20260504191503 | 86 | 247 | 5.0 | 8.0 | 0.00 | 0.00 | 0.00 | 70 | 1016.0 |
| 20260504190959 | 87 | 196 | 6.0 | 8.0 | 0.00 | 0.00 | 0.00 | 69 | 1015.9 |
| 20260504190455 | 86 | 189 | 5.0 | 8.0 | 0.00 | 0.00 | 0.00 | 69 | 1015.9 |
| 20260504185952 | 87 | 190 | 6.0 | 7.0 | 0.00 | 0.00 | 0.00 | 66 | 1016.0 |
| 20260504185449 | 89 | 263 | 2.0 | 2.0 | 0.00 | 0.00 | 0.00 | 64 | 1016.0 |
| 20260504184945 | 87 | 192 | 4.0 | 6.0 | 0.00 | 0.00 | 0.00 | 65 | 1016.1 |
| 20260504184441 | 88 | 180 | 8.0 | 11.0 | 0.00 | 0.00 | 0.00 | 65 | 1015.9 |
| 20260504183936 | 87 | 240 | 6.0 | 7.0 | 0.00 | 0.00 | 0.00 | 67 | 1016.4 |
| 20260504183434 | 87 | 222 | 5.0 | 8.0 | 0.00 | 0.00 | 0.00 | 65 | 1016.3 |
| 20260504182932 | 86 | 199 | 6.0 | 10.0 | 0.00 | 0.00 | 0.00 | 67 | 1016.1 |
| 20260504182429 | 87 | 166 | 3.0 | 4.0 | 0.00 | 0.00 | 0.00 | 66 | 1016.3 |
| 20260504181926 | 87 | 224 | 5.0 | 7.0 | 0.00 | 0.00 | 0.00 | 66 | 1016.5 |
| 20260504181423 | 88 | 254 | 5.0 | 7.0 | 0.00 | 0.00 | 0.00 | 64 | 1016.4 |
| 20260504180922 | 87 | 218 | 8.0 | 9.0 | 0.00 | 0.00 | 0.00 | 68 | 1016.5 |
| 20260504180420 | 88 | 241 | 1.0 | 1.0 | 0.00 | 0.00 | 0.00 | 62 | 1016.4 |
| 20260504175918 | 87 | 236 | 7.0 | 9.0 | 0.00 | 0.00 | 0.00 | 64 | 1016.5 |
| 20260504175414 | 87 | 206 | 5.0 | 6.0 | 0.00 | 0.00 | 0.00 | 64 | 1016.7 |
| 20260504174912 | 87 | 179 | 7.0 | 13.0 | 0.00 | 0.00 | 0.00 | 67 | 1016.6 |
| 20260504174410 | 89 | 188 | 6.0 | 8.0 | 0.00 | 0.00 | 0.00 | 64 | 1016.6 |
| 20260504173907 | 88 | 273 | 4.0 | 7.0 | 0.00 | 0.00 | 0.00 | 65 | 1016.7 |
| 20260504173403 | 87 | 197 | 6.0 | 8.0 | 0.00 | 0.00 | 0.00 | 65 | 1016.8 |
| 20260504172900 | 87 | 241 | 4.0 | 8.0 | 0.00 | 0.00 | 0.00 | 67 | 1016.8 |
| 20260504172357 | 88 | 208 | 5.0 | 7.0 | 0.00 | 0.00 | 0.00 | 65 | 1016.9 |
| 20260504171852 | 88 | 216 | 9.0 | 13.0 | 0.00 | 0.00 | 0.00 | 65 | 1016.8 |
| 20260504171350 | 88 | 223 | 9.0 | 14.0 | 0.00 | 0.00 | 0.00 | 64 | 1017.1 |
| 20260504170847 | 87 | 157 | 5.0 | 10.0 | 0.00 | 0.00 | 0.00 | 66 | 1017.1 |
| 20260504170344 | 88 | 216 | 4.0 | 6.0 | 0.00 | 0.00 | 0.00 | 63 | 1017.2 |
| 20260504160302 | 88 | 134 | 6.0 | 8.0 | 0.00 | 0.00 | 0.00 | 58 | 1017.7 |
| 20260504150728 | 88 | 237 | 3.0 | 6.0 | 0.00 | 0.00 | 0.00 | 57 | 1017.8 |
| 20260504150224 | 88 | 181 | 4.0 | 7.0 | 0.00 | 0.00 | 0.00 | 57 | 1017.9 |
| 20260504141154 | 88 | 189 | 9.0 | 13.0 | 0.00 | 0.00 | 0.00 | 59 | 1017.7 |
| 20260504140650 | 87 | 305 | 2.0 | 2.0 | 0.00 | 0.00 | 0.00 | 59 | 1017.7 |
| 20260504140146 | 87 | 109 | 7.0 | 8.0 | 0.00 | 0.00 | 0.00 | 60 | 1017.7 |
| 20260504130614 | 87 | 233 | 5.0 | 8.0 | 0.00 | 0.00 | 0.00 | 63 | 1017.7 |
| 20260504130111 | 87 | 296 | 3.0 | 4.0 | 0.00 | 0.00 | 0.00 | 63 | 1017.6 |
| 20260504110502 | 77 | 327 | 1.0 | 1.0 | 0.00 | 0.00 | 0.00 | 81 | 1017.5 |
| 20260504100424 | 73 | 68 | 2.0 | 3.0 | 0.00 | 0.00 | 0.00 | 88 | 1017.1 |
| 20260504081817 | 73 | 350 | 2.0 | 2.0 | 0.00 | 0.00 | 0.00 | 87 | 1016.1 |
| 20260504081314 | 74 | 47 | 2.0 | 3.0 | 0.00 | 0.00 | 0.00 | 87 | 1016.1 |
| 20260504080810 | 74 | 302 | 1.0 | 2.0 | 0.00 | 0.00 | 0.00 | 87 | 1016.2 |
| 20260504080307 | 74 | 334 | 1.0 | 1.0 | 0.00 | 0.00 | 0.00 | 86 | 1016.3 |
| 20260504070235 | 73 | 4 | 1.0 | 2.0 | 0.00 | 0.00 | 0.00 | 87 | 1016.2 |